TimePDT,TemperatureF,Dew PointF,Humidity,Sea Level PressureIn,VisibilityMPH,Wind Direction,Wind SpeedMPH,Gust SpeedMPH,PrecipitationIn,Events,Conditions,WindDirDegrees,DateUTC
12:56 AM,73.9,30.0,20,29.74,10.0,NW,10.4,-,N/A,,Clear,310,2013-04-07 07:56:00
1:56 AM,70.0,30.0,23,29.72,10.0,WSW,4.6,-,N/A,,Clear,240,2013-04-07 08:56:00
2:56 AM,70.0,30.9,24,29.71,10.0,West,4.6,-,N/A,,Clear,260,2013-04-07 09:56:00
3:56 AM,64.9,30.0,27,29.72,10.0,WNW,5.8,-,N/A,,Clear,300,2013-04-07 10:56:00
4:56 AM,63.0,30.0,29,29.72,10.0,Calm,Calm,-,N/A,,Clear,0,2013-04-07 11:56:00
5:56 AM,64.0,30.9,29,29.73,10.0,Calm,Calm,-,N/A,,Clear,0,2013-04-07 12:56:00
6:56 AM,63.0,30.9,30,29.76,10.0,Calm,Calm,-,N/A,,Clear,0,2013-04-07 13:56:00
7:56 AM,69.1,32.0,25,29.78,10.0,Calm,Calm,-,N/A,,Clear,0,2013-04-07 14:56:00
8:56 AM,70.0,32.0,25,29.78,10.0,SSE,6.9,-,N/A,,Clear,160,2013-04-07 15:56:00
9:56 AM,75.0,32.0,21,29.78,10.0,ENE,3.5,-,N/A,,Clear,60,2013-04-07 16:56:00
10:56 AM,78.1,32.0,19,29.78,10.0,Calm,Calm,-,N/A,,Clear,0,2013-04-07 17:56:00
11:56 AM,82.0,33.1,17,29.75,10.0,Calm,Calm,-,N/A,,Clear,0,2013-04-07 18:56:00
12:56 PM,86.0,32.0,14,29.73,10.0,Calm,Calm,-,N/A,,Clear,0,2013-04-07 19:56:00
1:56 PM,87.1,32.0,14,29.70,10.0,NNE,5.8,-,N/A,,Clear,20,2013-04-07 20:56:00
2:56 PM,87.1,30.9,13,29.67,10.0,Variable,3.5,-,N/A,,Clear,0,2013-04-07 21:56:00
3:56 PM,88.0,28.9,12,29.64,10.0,South,8.1,-,N/A,,Clear,190,2013-04-07 22:56:00
4:56 PM,89.1,28.0,11,29.62,10.0,South,8.1,-,N/A,,Clear,190,2013-04-07 23:56:00
5:56 PM,88.0,28.9,12,29.58,10.0,SW,9.2,-,N/A,,Clear,220,2013-04-08 00:56:00
6:56 PM,84.9,30.0,14,29.58,10.0,WSW,12.7,-,N/A,,Clear,250,2013-04-08 01:56:00
7:56 PM,82.0,30.9,16,29.57,10.0,WSW,15.0,-,N/A,,Clear,250,2013-04-08 02:56:00
8:56 PM,79.0,30.9,17,29.58,10.0,West,11.5,-,N/A,,Clear,260,2013-04-08 03:56:00
9:56 PM,77.0,32.0,19,29.57,10.0,SW,8.1,-,N/A,,Clear,230,2013-04-08 04:56:00
10:56 PM,78.1,30.9,18,29.54,10.0,SW,9.2,-,N/A,,Clear,220,2013-04-08 05:56:00
11:56 PM,75.9,33.1,21,29.52,10.0,SW,10.4,-,N/A,,Clear,220,2013-04-08 06:56:00